Weather in Puerto de la Cruz

Spain     28°24′50″N   16°32′55″W
temp.,
°C
wind,
m/s
gust,
m/s
humid.,
%
clouds,
%
prec.,
mm/h
press.,
hPa
HPBL,
m
13 may, thu
thu1301:00+17ene677999 0.0 1024622
04:00+17ne5682100 0.0 1023677
07:00+18ne678069 0.1 1022763
10:00+18ne568269 0.1 1024732
13:00+18ne568564 0.2 1023515
16:00+18nne348249 0.1 1022287
19:00+18nne568443 0.2 1022577
22:00+17ne56762 0.0 1023689
14 may, fri
fri1401:00+17ne567718 0.0 1023788
04:00+17ne577969 0.0 1021806
07:00+17ne578127 0.1 1021726
10:00+18ne468050 0.0 1022772
13:00+18ne467822 0.1 1022726
16:00+18nne457414 0.0 1021738
19:00+18ne24732 0.0 1020700
22:00+18ne347925 0.0 1021739
15 may, sat
sat1501:00+17ne248370 0.1 1020409
04:00+17ne248218 0.1 1018443
07:00+17nne358067 0.1 1019748
10:00+18ne357854 0.0 1019737
13:00+19ne35765 0.1 1020656
16:00+19nne44753 0.0 1018585
19:00+19nne34772 0.0 1018529
22:00+18ne238010 0.0 1019450
16 may, sun
sun1601:00+18ne137611 0.0 1019523
04:00+18ne247817 0.0 1017553
07:00+18ne247822 0.0 1017536
10:00+18ne357721 0.0 1018507
13:00+20ne557520 0.0 1019461
16:00+19ne778230 0.0 1018368
19:00+20ne678237 0.0 1018461
22:00+19ene6884100 0.0 1020438
17 may, mon
mon1701:00+20ene687895 0.0 1019408
04:00+19ene677810 0.0 1019389
07:00+20ene687489 0.0 1019339
10:00+20ene797485 0.0 1020409
13:00+21ene8968100 0.0 1020379
16:00+20ene91071100 0.0 1019386
19:00+20ene79735 0.0 1019379
22:00+20ene697983 0.0 1020369